Location: Banff
(51.1667°N, 115.5667°W)
Time: 10:29:18
(UTC+00:00)

SR - Pass Details

Date: 04 December 2020
Orbit: 575 x 880 km, 66.7° (Epoch: 19 January)

Event Time Altitude Azimuth Distance (km) Brightness Sun altitude
Rises 00:32:15 0° 190° (S) 2,814 ? -8.3°
Reaches altitude 10° 00:34:32 10° 181° (S) 1,944 ? -8.6°
Maximum altitude 00:38:30 35° 116° (ESE) 1,019 ? -9.2°
Enters shadow 00:42:21 12° 53° (NE) 1,945 ? -9.7°
